Terug naar catalogus

FENGYUN 1C DEB

ActiefSSO
NORAD 32187·DEBRIS·🇨🇳 China

Gelanceerd May 10, 1999 vanaf Taiyuan Satellite Launch Center

Loading…

Volgende Passages (komende 24 uur)

TLE

VersSource: Space-Track

Epoch: Sep 12, 2026, 10:29 UTC

1 32187U 99025CUH 26255.43714388  .00000262  00000-0  36136-3 0  9996
2 32187  99.4818 327.1841 0293276 179.9926 246.0373 13.50651084699530

Volg FENGYUN 1C DEB in realtime met AllMySat

Download on the App Store